Location: Arboyeti
(42.1122°N, 44.6017°E)
Time: 04:06:41
(UTC+00:00)

Cosmos-2242 - Pass Details

Date: 19 April 2021
Orbit: 589 x 618 km, 82.5° (Epoch: 09 May)

Event Time Altitude Azimuth Distance (km) Brightness Sun altitude
Exits shadow 17:24:05 25° 83° (E) 1,227 4.2 -17.0°
Drops below altitude 10° 17:27:24 10° 34° (NNE) 1,958 5.6 -17.5°
Sets 17:29:53 0° 21° (NNE) 2,861 6.7 -17.9°
